Location: Lecco
(45.8566°N, 9.3977°E)
Time: 10:22:56
(UTC+02:00)

S-56A Canister/Altair - Pass Details

Date: 30 July 2019
Orbit: 633 x 2499 km, 38.9° (Epoch: 18 August)

Event Time Altitude Azimuth Distance (km) Brightness Sun altitude
Rises 13:11:51 0° 278° (W) 5,874 12.0 62.4°
Reaches altitude 10° 13:18:02 10° 259° (W) 5,066 11.9 62.6°
Maximum altitude 13:25:02 15° 230° (SW) 4,722 12.0 62.6°
Drops below altitude 10° 13:32:08 10° 201° (SSW) 5,099 12.3 62.6°
Sets 13:38:30 0° 182° (S) 5,927 12.5 62.6°
